Location: Soapstone Prairie Natural Area
(40.9437°N, 105.0829°W)
Time: 04:11:30
(UTC-06:00)

ISS - Visible Passes

Search period start: 29 July 2016 00:00
Search period end: 08 August 2016 00:00
Orbit: 401 x 404 km, 51.6° (Epoch: 29 July)

Date Brightness Start Highest point End Pass type
(mag) Time Alt. Az. Time Alt. Az. Time Alt. Az.
29 Jul 0.0 00:07:44 10° NNW 00:09:19 13° N 00:10:46 10° NNE visible
29 Jul -1.7 21:35:52 10° W 21:38:55 37° NNW 21:41:59 10° NE visible
29 Jul -0.1 23:14:13 10° NW 23:16:03 14° N 23:17:53 10° NNE visible
30 Jul 0.2 00:51:34 10° NNW 00:51:55 11° NNW 00:51:55 11° NNW visible
30 Jul -2.9 20:42:41 10° WSW 20:45:55 66° NNW 20:49:10 10° NE visible
30 Jul -0.3 22:20:36 10° WNW 22:22:50 17° NNW 22:25:04 10° NNE visible
30 Jul -0.1 23:58:38 10° NNW 00:00:16 13° N 00:00:34 13° N visible
31 Jul -0.7 21:27:01 10° WNW 21:29:39 22° NNW 21:32:18 10° NNE visible
31 Jul -0.2 23:05:27 10° NNW 23:07:00 13° N 23:08:33 10° NNE visible
01 Aug -0.3 22:12:00 10° NW 22:13:44 14° N 22:15:28 10° NNE visible
01 Aug -0.2 23:49:07 10° NNW 23:50:33 15° N 23:50:33 15° N visible
02 Aug -0.4 21:18:23 10° NW 21:20:29 16° NNW 21:22:37 10° NNE visible
02 Aug -0.4 22:56:14 10° NNW 22:57:57 13° N 22:59:16 11° NNE visible
03 Aug -0.3 22:03:08 10° NNW 22:04:40 13° N 22:06:12 10° NNE visible
03 Aug -0.3 23:39:25 10° NNW 23:40:36 16° NNW 23:40:36 16° NNW visible
04 Aug -0.4 21:09:44 10° NW 21:11:23 13° N 21:13:03 10° NNE visible
04 Aug -0.8 22:46:39 10° NNW 22:48:50 16° NNE 22:49:21 16° NNE visible
05 Aug -0.5 21:53:48 10° NNW 21:55:36 14° N 21:57:23 10° NE visible
05 Aug -0.4 23:29:42 10° NW 23:30:43 17° NNW 23:30:43 17° NNW visible
06 Aug -0.5 21:00:45 10° NNW 21:02:19 13° N 21:03:52 10° NNE visible
06 Aug -1.3 22:36:55 10° NW 22:39:30 23° NNE 22:39:30 23° NNE visible
07 Aug -0.9 21:44:09 10° NNW 21:46:27 18° NNE 21:48:20 12° NE visible
07 Aug -0.4 23:20:04 10° NW 23:20:55 17° NW 23:20:55 17° NW visible
